Weather observations for the past three days for
Newton, Newton City/County Airport
Metric (Imperial)
Date Time (cdt) Wind (kph) Vis. (km) Weather Sky Cond. Temperature (ºC) Relative Humidity Wind Chill (°C) Heat Index (°C) Pressure Precipitation (cm)
Air Dwpt 6 hour altimeter (cm) sea level (mb) 1 hr 3 hr 6 hr
Max. Min.
06 10:56 W 11 16.09 Fair CLR 34.4 18.3 38% 36 76.3 1015.2
06 09:56 Vrbl 6 16.09 Fair CLR 32.8 18.3 42% 34 76.28 1014.8
06 08:56 S 9 16.09 Fair CLR 28.9 18.9 55% 30 76.28 1014.8
06 07:56 E 7 16.09 Fair CLR 24.4 18.9 72% 25 76.23 1014.5
06 06:56 SE 9 16.09 Fair CLR 24.4 18.3 26.7 23.3 69% 25 76.15 1013.3
06 05:56 SE 11 16.09 Fair CLR 23.9 18.3 71% 25 76.12 1012.8
06 04:56 SE 9 16.09 Fair CLR 23.9 18.3 71% 25 76.15 1013.0
06 03:56 SE 9 16.09 Fair CLR 24.4 17.8 67% 25 76.12 1012.7
06 02:56 SE 9 16.09 Fair CLR 25.6 17.8 62% 27 76.12 1012.6
06 01:56 SE 15 16.09 Fair CLR 25.6 18.3 64% 27 76.1 1012.4
06 00:56 SE 15 16.09 Fair CLR 26.7 18.3 34.4 26.1 60% 28 76.12 1012.5
05 23:56 SE 13 16.09 Fair CLR 26.7 18.3 60% 28 76.1 1012.5
05 22:56 SE 11 16.09 Fair CLR 27.8 17.8 55% 29 76.1 1012.4
05 21:56 S 13 16.09 Fair CLR 30 17.8 48% 31 76.05 1011.7
05 20:56 S 11 16.09 Fair CLR 30.6 17.8 46% 31 76 1011.1
05 19:56 S 9 16.09 Fair CLR 32.2 17.2 41% 33 75.97 1010.8
05 18:56 S 11 16.09 Fair CLR 34.4 17.2 38.3 34.4 36% 35 75.97 1010.6
05 17:56 S 15 16.09 Fair CLR 36.7 16.7 31% 37 75.97 1010.5
05 16:56 SE 11 16.09 Partly Cloudy SCT090 37.8 17.2 30% 39 75.97 1010.5
05 15:56 SE 15 16.09 A Few Clouds FEW080 37.8 17.8 31% 39 76 1010.9
05 14:56 S 17 16.09 Partly Cloudy SCT075 37.8 18.9 33% 40 76.05 1011.8
05 12:56 S 26 G 37 16.09 Partly Cloudy SCT070 37.2 19.4 37.2 25.6 35% 40 76.15 1012.9
05 11:56 S 22 G 28 16.09 Fair CLR 36.7 19.4 36% 39 76.17 1013.4
05 10:56 SW 13 G 26 16.09 Fair CLR 34.4 19.4 41% 36 76.17 1013.4
05 09:56 S 22 16.09 Fair CLR 32.8 20 47% 35 76.15 1013.2
05 08:56 S 13 16.09 Fair CLR 28.9 20.6 61% 31 76.15 1013.2
05 07:56 S 11 16.09 Fair CLR 26.1 20 69% 27 76.1 1012.4
05 06:56 S 13 16.09 Fair CLR 25.6 19.4 27.8 24.4 69% 27 76.07 1012.1
05 05:56 S 15 16.09 Fair CLR 26.7 19.4 64% 28 76.07 1012.0
05 04:56 S 15 16.09 Fair CLR 27.2 19.4 62% 29 76.07 1012.1
05 03:56 S 15 16.09 Fair CLR 25.6 19.4 69% 27 76.1 1012.3
05 02:56 SE 9 16.09 Fair CLR 25 20 74% 26 76.1 1012.6
05 01:56 SE 13 16.09 Fair CLR 26 0 0% 76.07 1011.9
04 23:56 S 19 16.09 Fair CLR 27.8 20 63% 29 76.05 1011.9
04 22:56 SE 15 16.09 Fair CLR 28.3 20 61% 30 76.07 1012.1
04 21:56 SE 11 16.09 Fair CLR 27.8 20 63% 29 76.07 1012.3
04 20:56 SE 9 16.09 Fair CLR 28.9 19.4 57% 30 76 1011.2
04 19:56 S 11 16.09 Fair CLR 31.7 20 50% 34 75.97 1010.9
04 18:56 S 19 16.09 Fair CLR 34.4 19.4 37.2 34.4 41% 36 75.95 1010.6
04 17:56 S 20 16.09 Fair CLR 35.6 20 40% 38 75.95 1010.5
04 16:56 S 22 16.09 Fair CLR 36.7 20.6 39% 40 75.95 1010.2
04 15:56 S 19 G 30 16.09 Fair CLR 36.7 20.6 39% 40 75.97 1010.6
04 14:56 S 19 G 31 16.09 Fair CLR 36.1 20.6 40% 39 76 1011.1
04 13:56 S 19 G 30 16.09 Fair CLR 35.6 20.6 41% 39 76.02 1011.5
04 12:56 S 24 16.09 Fair CLR 34.4 21.1 35 23.3 46% 38 76.07 1011.9
04 11:56 Calm 16.09 Fair CLR 32.8 21.1 50% 36 76.1 1012.6
04 10:56 S 26 16.09 Fair CLR 31.7 21.1 53% 35 76.1 1012.5
04 09:56 S 26 16.09 Fair CLR 29.4 21.7 63% 32 76.1 1012.6
04 08:56 S 22 16.09 Fair CLR 26.1 21.7 77% 28 76.12 1012.9
04 07:56 S 15 16.09 Fair CLR 23.9 21.1 84% 24 76.1 1012.5
04 06:56 S 17 16.09 Fair CLR 23.9 21.1 27.2 23.9 84% 24 76.05 1011.8
04 05:56 S 20 16.09 Fair CLR 25 21.1 79% 26 76.02 1011.5
04 04:56 S 17 16.09 Fair CLR 25 20.6 77% 26 76.02 1011.4
04 03:56 S 19 16.09 Fair CLR 25.6 20.6 74% 27 76.02 1011.2
04 02:56 S 20 16.09 Fair CLR 26.1 20.6 72% 28 76.02 1011.2
04 01:56 S 20 16.09 Fair CLR 26.7 20.6 69% 28 76.02 1011.2
04 00:56 S 19 16.09 Fair CLR 27.2 20.6 34.4 27.2 67% 29 76.02 1011.4
03 23:56 S 19 16.09 Fair CLR 28.3 20.6 63% 30 76 1011.0
03 22:56 S 22 G 35 16.09 Fair CLR 29.4 20.6 59% 32 76 1011.0
03 21:56 S 26 16.09 Fair CLR 30.6 20 53% 33 75.95 1010.3
03 20:56 S 20 16.09 Fair CLR 31.1 18.3 46% 32 75.9 1009.6
03 19:56 S 22 16.09 Fair CLR 32.8 17.8 41% 34 75.82 1008.8
03 18:56 S 22 G 33 16.09 Fair CLR 34.4 18.3 37.8 34.4 38% 36 75.82 1008.6
03 17:56 S 28 G 39 16.09 Fair CLR 36.1 17.2 33% 37 75.79 1008.2
03 16:56 S 31 16.09 Fair CLR 37.2 18.3 33% 39 75.79 1008.1
03 15:56 S 22 G 37 16.09 Fair CLR 37.2 18.3 33% 39 75.84 1008.7
03 14:56 S 20 16.09 Fair CLR 37.2 19.4 35% 40 75.87 1009.3
03 13:56 S 30 G 52 16.09 Fair CLR 35.6 19.4 39% 38 75.9 1009.7
03 12:56 S 22 G 41 16.09 Fair CLR 35 20.6 35 25.6 43% 38 76 1010.9
03 11:56 S 28 G 41 16.09 Fair CLR 33.3 20.6 47% 36 76.05 1011.7
Date Time (cdt) Wind (kph) Vis. (km) Weather Sky Cond. Air Dwpt Max. Min. Relative Humidity Wind Chill (°C) Heat Index (°C) altimeter (cm) sea level (mb) 1 hr 3 hr 6 hr
6 hour
Temperature (ºC) Pressure Precipitation (cm)